Time,TemperatureF,DewpointF,PressureIn,WindDirection,WindDirectionDegrees,WindSpeedMPH,WindSpeedGustMPH,Humidity,HourlyPrecipIn,Conditions,Clouds,dailyrainin,SoftwareType,DateUTC
2013-11-18 00:01:00,16.0,-99.9,-100.00,North,-999,-999.0,-999.0,-999,0.00,,,0.21,,2013-11-18 07:01:00,
2013-11-18 00:12:00,16.0,-99.9,-100.00,North,-999,-999.0,-999.0,-999,0.00,,,0.21,,2013-11-18 07:12:00,
2013-11-18 03:13:00,12.0,-99.9,-100.00,North,-999,-999.0,-999.0,-999,0.00,,,0.21,,2013-11-18 10:13:00,
2013-11-18 04:12:00,11.0,-99.9,-100.00,North,-999,-999.0,-999.0,-999,0.00,,,0.21,,2013-11-18 11:12:00,
2013-11-18 07:42:00,7.0,-99.9,-100.00,North,-999,-999.0,-999.0,-999,0.00,,,0.21,,2013-11-18 14:42:00,
2013-11-18 08:43:00,12.0,-99.9,-100.00,North,-999,-999.0,-999.0,-999,0.00,,,0.21,,2013-11-18 15:43:00,
2013-11-18 08:54:00,12.0,-99.9,-100.00,North,-999,-999.0,-999.0,-999,0.00,,,0.21,,2013-11-18 15:54:00,
2013-11-18 09:04:00,12.0,-99.9,-100.00,North,-999,-999.0,-999.0,-999,0.00,,,0.21,,2013-11-18 16:04:00,
2013-11-18 09:13:00,12.0,-99.9,-100.00,North,-999,-999.0,-999.0,-999,0.00,,,0.21,,2013-11-18 16:13:00,
2013-11-18 09:43:00,19.0,-99.9,-100.00,North,-999,-999.0,-999.0,-999,0.01,,,0.22,,2013-11-18 16:43:00,
2013-11-18 09:53:00,19.0,-99.9,-100.00,North,-999,-999.0,-999.0,-999,0.01,,,0.22,,2013-11-18 16:53:00,
2013-11-18 10:02:00,19.0,-99.9,-100.00,North,-999,-999.0,-999.0,-999,0.01,,,0.22,,2013-11-18 17:02:00,
2013-11-18 10:12:00,19.0,-99.9,-100.00,North,-999,-999.0,-999.0,-999,0.01,,,0.22,,2013-11-18 17:12:00,
2013-11-18 11:52:00,29.0,-99.9,-100.00,North,-999,-999.0,-999.0,-999,0.00,,,0.15,,2013-11-18 18:52:00,
2013-11-18 12:02:00,29.0,-99.9,-100.00,North,-999,-999.0,-999.0,-999,0.00,,,0.15,,2013-11-18 19:02:00,
2013-11-18 12:11:00,29.0,-99.9,-100.00,North,-999,-999.0,-999.0,-999,0.00,,,0.15,,2013-11-18 19:11:00,
2013-11-18 12:42:00,35.0,-99.9,-100.00,North,-999,-999.0,-999.0,-999,0.00,,,0.09,,2013-11-18 19:42:00,
2013-11-18 12:52:00,35.0,-99.9,-100.00,North,-999,-999.0,-999.0,-999,0.00,,,0.09,,2013-11-18 19:52:00,
2013-11-18 13:02:00,35.0,-99.9,-100.00,North,-999,-999.0,-999.0,-999,0.00,,,0.09,,2013-11-18 20:02:00,
2013-11-18 13:11:00,35.0,-99.9,-100.00,North,-999,-999.0,-999.0,-999,0.00,,,0.09,,2013-11-18 20:11:00,
2013-11-18 13:52:00,34.0,-99.9,-100.00,North,-999,-999.0,-999.0,-999,0.00,,,0.04,,2013-11-18 20:52:00,
2013-11-18 14:02:00,34.0,-99.9,-100.00,North,-999,-999.0,-999.0,-999,0.00,,,0.04,,2013-11-18 21:02:00,
2013-11-18 14:12:00,34.0,-99.9,-100.00,North,-999,-999.0,-999.0,-999,0.00,,,0.04,,2013-11-18 21:12:00,
2013-11-18 14:43:00,37.0,-99.9,-100.00,North,-999,-999.0,-999.0,-999,0.01,,,0.04,,2013-11-18 21:43:00,
2013-11-18 14:54:00,37.0,-99.9,-100.00,North,-999,-999.0,-999.0,-999,0.01,,,0.04,,2013-11-18 21:54:00,
2013-11-18 15:03:00,37.0,-99.9,-100.00,North,-999,-999.0,-999.0,-999,0.01,,,0.04,,2013-11-18 22:03:00,
2013-11-18 15:13:00,37.0,-99.9,-100.00,North,-999,-999.0,-999.0,-999,0.01,,,0.04,,2013-11-18 22:13:00,
2013-11-18 15:43:00,43.0,-99.9,-100.00,North,-999,-999.0,-999.0,-999,0.00,,,0.02,,2013-11-18 22:43:00,
2013-11-18 15:53:00,43.0,-99.9,-100.00,North,-999,-999.0,-999.0,-999,0.00,,,0.02,,2013-11-18 22:53:00,
2013-11-18 16:02:00,43.0,-99.9,-100.00,North,-999,-999.0,-999.0,-999,0.00,,,0.02,,2013-11-18 23:02:00,
2013-11-18 16:12:00,43.0,-99.9,-100.00,North,-999,-999.0,-999.0,-999,0.00,,,0.02,,2013-11-18 23:12:00,
2013-11-18 17:52:00,26.0,-99.9,-100.00,North,-999,-999.0,-999.0,-999,0.00,,,0.02,,2013-11-19 00:52:00,
2013-11-18 18:02:00,26.0,-99.9,-100.00,North,-999,-999.0,-999.0,-999,0.00,,,0.02,,2013-11-19 01:02:00,
2013-11-18 18:11:00,26.0,-99.9,-100.00,North,-999,-999.0,-999.0,-999,0.00,,,0.02,,2013-11-19 01:11:00,
2013-11-18 18:52:00,23.0,-99.9,-100.00,North,-999,-999.0,-999.0,-999,0.00,,,0.02,,2013-11-19 01:52:00,
2013-11-18 19:01:00,23.0,-99.9,-100.00,North,-999,-999.0,-999.0,-999,0.00,,,0.02,,2013-11-19 02:01:00,
2013-11-18 19:12:00,23.0,-99.9,-100.00,North,-999,-999.0,-999.0,-999,0.00,,,0.02,,2013-11-19 02:12:00,
2013-11-18 23:12:00,15.0,-99.9,-100.00,North,-999,-999.0,-999.0,-999,0.00,,,0.02,,2013-11-19 06:12:00,
2013-11-18 23:42:00,14.0,-99.9,-100.00,North,-999,-999.0,-999.0,-999,0.00,,,0.02,,2013-11-19 06:42:00,